Regional Weather Roundup
Issued by NWS

Home | Current Version | Previous Version | Text Only | Print | Product List | Glossary On
Versions: 1 2 3 4 5 6 7 8 9 10 11 12 13 14 15 16 17 18 19 20 21 22 23 24 25 26 27 28 29 30 31 32 33 34 35 36 37 38 39 40 41 42 43 44 45 46 47 48 49
000
ASUS45 KREV 020610
RWRNV
NEVADA REGIONAL WEATHER ROUNDUP
NATIONAL WEATHER SERVICE RENO NV
1100 PM PDT WED OCT 01 2014

NOTE: "FAIR" INDICATES FEW OR NO CLOUDS BELOW 12,000 FEET WITH NO
SIGNIFICANT WEATHER AND/OR OBSTRUCTIONS TO VISIBILITY.

NVZ001-003-004-020700-
WESTERN NEVADA

CITY           SKY/WX    TMP DP  RH WIND       PRES   REMARKS
RENO           CLEAR     50  29  44 SW3       30.23R
6HR MIN TEMP:  49; 6HR MAX TEMP:  66;

CARSON CITY    FAIR      46  23  39 CALM      30.24R
MINDEN         FAIR      36  25  64 SE3       30.25
SLIDE MTN        N/A     45  10  24 E10         N/A
PYRAMID LAKE     N/A     57 N/A N/A SW8         N/A
FALLON         CLEAR     45  31  58 CALM      30.20S
6HR MIN TEMP:  44; 6HR MAX TEMP:  65;

LOVELOCK       CLEAR     51  27  39 NE5       30.21R
6HR MIN TEMP:  44; 6HR MAX TEMP:  66;

HAWTHORNE      CLEAR     54  32  43 CALM      30.22R
$$

NVZ002-CAZ072-073-020700-
NORTHERN AND CENTRAL SIERRA

CITY           SKY/WX    TMP DP  RH WIND       PRES   REMARKS
S. LAKE TAHOE  CLEAR     37  29  72 S5        30.25R
6HR MIN TEMP:  36; 6HR MAX TEMP:  62;

TRUCKEE        CLEAR     34  28  80 CALM      30.26S
SQUAW VLY 8000 NOT AVBL
BLUE CANYON    CLEAR     59  10  14 NE5       30.16S
MAMMOTH LAKES  FAIR      43  16  33 CALM      30.29R
BRIDGEPORT     FAIR      35  25  66 CALM      30.28R
$$

NVZ030-031-036-020700-
NORTHERN NEVADA

CITY           SKY/WX    TMP DP  RH WIND       PRES   REMARKS
ELKO           CLEAR     37  26  64 W3        30.24S
6HR MIN TEMP:  35; 6HR MAX TEMP:  59;

WINNEMUCCA     CLEAR     36  30  79 SE6       30.24R
6HR MIN TEMP:  35; 6HR MAX TEMP:  60;

WENDOVER       CLEAR     48  36  61 CALM      30.22S
$$

NVZ035-037-020700-
CENTRAL NEVADA

CITY           SKY/WX    TMP DP  RH WIND       PRES   REMARKS
ELY            CLEAR     33  23  66 E3        30.26S
6HR MIN TEMP:  33; 6HR MAX TEMP:  56;

EUREKA           N/A     35  22  58 S5        30.27R
6HR MIN TEMP:  33; 6HR MAX TEMP:  57;

$$

NVZ013-014-020700-
SOUTH CENTRAL NEVADA

CITY           SKY/WX    TMP DP  RH WIND       PRES   REMARKS
TONOPAH        CLEAR     50  19  29 N13       30.22S
6HR MIN TEMP:  49; 6HR MAX TEMP:  67;

$$

NVZ017-020-022-020700-
SOUTHERN NEVADA

CITY           SKY/WX    TMP DP  RH WIND       PRES   REMARKS
LAS VEGAS      CLEAR     70  28  21 NE7       30.02R
6HR MIN TEMP:  70; 6HR MAX TEMP:  82;

N. LAS VEGAS   CLEAR     69  28  21 E14       30.04R
6HR MIN TEMP:  69; 6HR MAX TEMP:  83;

NELLIS AFB     CLEAR     68  32  26 NE7       30.04R
6HR MIN TEMP:  68; 6HR MAX TEMP:  81;

HENDERSON      CLEAR     66  30  26 NE6       30.08R
6HR MIN TEMP:  66; 6HR MAX TEMP:  82;

MERCURY        CLEAR     62  13  14 N16       30.09R
6HR MIN TEMP:  61; 6HR MAX TEMP:  77;

$$


USA.gov is the U.S. government's official web portal to all federal, state and local government web resources and services.